Regional Weather Roundup
Issued by NWS Sterling, VA

Home | Current Version | Previous Version | Graphics & Text | Print | Product List | Glossary On
Versions: 1 2 3 4 5 6 7 8 9 10 11 12 13 14 15 16 17 18 19 20 21 22 23 24 25 26 27 28 29 30 31 32 33 34 35 36 37 38 39 40 41 42 43 44 45 46 47 48 49 50
635
ASUS41 KLWX 211011
RWRLWX

REGIONAL WEATHER ROUNDUP
NATIONAL WEATHER SERVICE BALTIMORE MD/WASHINGTON DC
500 AM EST TUE NOV 21 2017

Note: "FAIR" indicates few or no clouds below 12,000 feet
with no significant weather and/or obstructions to visibility.
 TC=TEMPERATURE CELSIUS

 * =Non NWS site. Station does not report precipitation (e.g. rain,
    snow, etc.), thunder, or fog.

DCZ001-MDZ009-015-VAZ040>042-051-053>054-211100-
WASHINGTON METRO

CITY           SKY/WX    TMP DP  RH WIND       PRES   REMARKS
WASHINGTON NAT MOCLDY    40  30  67 S8        30.14F
DULLES         PTCLDY    36  27  69 S6        30.12S
ANDREWS AFB    CLEAR     37  27  66 S10       30.12F
FT BELVOIR     CLEAR     29  27  89 CALM      30.14S
QUANTICO       CLEAR     42  30  62 SW8       30.16S
COLLEGE PARK*  CLEAR     40  27  59 CALM      30.13S
LEESBURG*      CLEAR     32  28  86 CALM      30.12S
MANASSAS*      CLEAR     33  25  72 S3        30.13F
GAITHERSBURG*  CLEAR     36  25  64 SE6       30.11F

$$

MDZ006>007-011-014-211100-
BALTIMORE METRO

CITY           SKY/WX    TMP DP  RH WIND       PRES   REMARKS
BWI AIRPORT    PTCLDY    34  27  75 SW5       30.12F
MD SCIENCE CTR   N/A     39  28  64 MISG      30.13S
MARTIN STATE   PTCLDY    43  32  65 S6        30.14F
ANNAPOLIS      CLEAR     45  30  55 SW6       30.14S
FORT MEADE*    CLEAR     28  27  93 CALM      30.15F

$$

MDZ012-015-019>023-211100-
MARYLAND EASTERN SHORE

CITY           SKY/WX    TMP DP  RH WIND       PRES   REMARKS
OCEAN CITY     CLEAR     46  35  65 SW12      30.21S
SALISBURY      CLEAR     39  35  86 S9        30.19F
CAMBRIDGE*     CLEAR     43  34  70 S6        30.17S

$$

MDZ017>025-211100-
SOUTHERN MARYLAND

CITY           SKY/WX    TMP DP  RH WIND       PRES   REMARKS
PATUXENT RIVER CLEAR     45  30  55 SW15G22   30.16F
ST INIGOES     NOT AVBL
LEONARDTOWN*   CLEAR     43  30  61 SW9       30.18S

$$

MDZ003>005-211100-
NORTH CENTRAL MARYLAND

CITY           SKY/WX    TMP DP  RH WIND       PRES   REMARKS
FREDERICK*     CLEAR     32  27  80 CALM      30.13S
HAGERSTOWN APT CLEAR     38  22  52 S8        30.06S
WESTMINSTER*   CLEAR     37  27  65 S6        30.08S

$$

MDZ501>502-211100-
WESTERN MARYLAND

CITY           SKY/WX    TMP DP  RH WIND       PRES   REMARKS
OAKLAND*       CLEAR     36  10  35 SW13G21   29.96S WCI  27
CUMBERLAND*    CLEAR     28  27  93 CALM      30.10S

$$

VAZ025>031-211100-
SHENANDOAH VALLEY

CITY           SKY/WX    TMP DP  RH WIND       PRES   REMARKS
WINCHESTER*    CLEAR     37  23  56 SW8       30.07S
FRONT ROYAL*   CLEAR     41  23  48 SW9       30.06F
LURAY*         CLEAR     32  27  80 S5        30.09S
NEW MARKET*    CLEAR     38  22  52 W7        30.09F
STAUNTON*      CLOUDY    30  21  68 CALM      30.13S
WAYNESBORO*    CLOUDY    26  22  84 CALM      30.11S

$$

WVZ021-048>050-054>055-211100-
EASTERN WEST VIRGINIA PANHANDLE

CITY           SKY/WX    TMP DP  RH WIND       PRES   REMARKS
MARTINSBURG    CLEAR     36  22  56 S6        30.06S
PETERSBURG*    CLEAR     25  20  83 NW3       30.06S

$$

VAZ036>039-050-211100-
CENTRAL FOOTHILLS

CITY           SKY/WX    TMP DP  RH WIND       PRES   REMARKS
CHARLOTTESVILL CLOUDY    33  24  69 S8        30.13S WCI  26
CULPEPER*      CLEAR     38  26  60 S6        30.13S
ORANGE*        CLEAR     34  27  75 S8        30.14S WCI  27
GORDONSVILLE*  PTCLDY    32  27  79 SW7       30.14R
WARRENTON*     NOT AVBL

$$

VAZ055>057-211100-
NORTH AND CENTRAL PIEDMONT

CITY           SKY/WX    TMP DP  RH WIND       PRES   REMARKS
FREDERICKSBRG* PTCLDY    37  30  74 S6        30.15S
STAFFORD*      CLEAR     33  28  79 CALM      30.19S

$$

NCZ024-NYZ072-PAZ021-071-VAZ022-071-211100-
OTHER REGIONAL OBSERVATIONS

CITY           SKY/WX    TMP DP  RH WIND       PRES   REMARKS
NEW YORK CITY  CLOUDY    42  29  59 VRB6      30.13F
PHILADELPHIA   PTCLDY    41  31  67 SW7       30.14S
PITTSBURGH     CLEAR     32  22  66 S6        29.95F
ROANOKE        CLOUDY    29  25  85 CALM      30.17F
RICHMOND       CLOUDY    35  28  75 S7        30.20S
RALEIGH        CLOUDY    34  30  85 CALM      30.24S

$$

ANZ530>537-211100-
MARINE OBSERVATIONS

STATION/POSITION TIME  TEMP    WIND        PRES
                       AIR SEA DIR/SP/G
                 (UTC) (F)     (DEG/KT/KT) (MB)
THOMAS PT LIGHT  1000   47 52  210/ 14/ 16   N/A
BALT KEY BRIDGE  0942   41     210/  5/  6 1020.2F
COVE POINT       0942   46     220/ 12/ 16 1022.1R
LEWISETTA        0942   45 50  230/ 15/ 18 1022.0F
SOLOMONS ISLAND  0942   47 53  220/ 14/ 19 1021.2F
PINEY POINT      0948          220/ 15/ 19   N/A

$$





USA.gov is the U.S. government's official web portal to all federal, state and local government web resources and services.